sat.trackr.live / text

‹ back to catalog

STARLINK-5695

NORAD 55485 · 2023-015AN

PAYLOAD ACTIVE UNKNOWN

§ Identity

Operator
Country
US
Launch date
2023-02-02
Launch site
AFETR
Launch vehicle
Mass (kg)
RCS (m²)

Purposes: comms

External: N2YO · Heavens-Above · Gunter

§ Orbital elements

Epoch: 2026-09-20T11:35:27.899520Z

Period
94.27 min
Inclination
43.0052°
Eccentricity
0.0001753
Mean motion
15.27576716 rev/d
Perigee alt
481.9 km
Apogee alt
484.3 km
Semi-major
6,861.2 km
B*
1.2043e-5
RAAN
319.8795°
Arg perigee
288.3918°
Mean anomaly
71.6742°
Rev number
20,038

§ Raw data

STARLINK-56951 55485U 23015AN  26263.48296180  .00000069  00000+0  12043-4 0  99932 55485  43.0052 319.8795 0001753 288.3918  71.6742 15.27576716200387

JSON: /api/v1/satellites/55485 · /tle

For live sub-satellite position, see the globe view (requires WebGL).

§ Visibility from observer

Set your observer location to see the next 7 days of passes ≥ 10°. The values pass through the URL so the page stays shareable.

No JS? Fill the form by hand. The geolocation button needs JavaScript.